Change the Weather History Date:

Wednesday, December 11, 2013

  Actual Average (KESN) Record (KESN)
Temperature  
Mean Temperature 33 °F -  
Max Temperature 42 °F 53 °F 72 °F (1966)
Min Temperature 24 °F 34 °F 10 °F (1968)
Degree Days  
Heating Degree Days 32    
Moisture  
Dew Point 26 °F    
Average Humidity 76    
Maximum Humidity 93    
Minimum Humidity 42    
Precipitation  
Precipitation 0.00 in - - ()
Sea Level Pressure  
Sea Level Pressure 30.31 in    
Wind  
Wind Speed 1 mph (SW)    
Max Wind Speed 10 mph    
Max Gust Speed -    
Visibility 10 miles    
Events      
Averages and records for this station are not official NWS values.
T = Trace of Precipitation, MM = Missing Value Source: NWS Daily Summary

Daily Weather History Graph

Daily Weather History Graph

Search for Another Location

Airport or City:

Trip Planner

Search our weather history database for the weather conditions in past years. The results will help you decide how hot, cold, wet, or windy it might be!

Date:

Astronomy

Dec. 11, 2013 Rise Set
Actual Time 7:11 AM EST 4:43 PM EST
Civil Twilight 6:42 AM EST 5:12 PM EST
Nautical Twilight 6:08 AM EST 5:46 PM EST
Astronomical Twilight 5:36 AM EST 6:18 PM EST
Moon 1:12 PM EST (12/11) 1:33 AM EST (12/11)
Length of Visible Light 10h 30m
Length of Day
9h 31m
Waxing Gibbous, 71% of the Moon is Illuminated
Dec 11
Waxing Gibbous
Dec 17
Full
Dec 25
Last Quarter
Jan 1
New
Jan 7
First Quarter

Hourly Weather History & Observations

Time (EST) Temp. Windchill Dew Point Humidity Pressure Visibility Wind Dir Wind Speed Gust Speed Precip Events Conditions
12:04 AM 32.0 °F - 28.4 °F 87% 30.23 in 10.0 mi Calm Calm - N/A   Clear
12:24 AM 32.0 °F - 28.4 °F 87% 30.24 in 10.0 mi Calm Calm - N/A   Clear
12:44 AM 32.0 °F - 28.4 °F 87% 30.24 in 10.0 mi Calm Calm - N/A   Clear
1:04 AM 30.2 °F - 26.6 °F 86% 30.25 in 10.0 mi Calm Calm - N/A   Clear
1:24 AM 30.2 °F - 26.6 °F 86% 30.26 in 10.0 mi Calm Calm - N/A   Clear
1:44 AM 30.2 °F - 26.6 °F 86% 30.26 in 10.0 mi Calm Calm - N/A   Clear
2:04 AM 28.4 °F - 26.6 °F 93% 30.27 in 10.0 mi Calm Calm - N/A   Clear
2:24 AM 30.2 °F - 26.6 °F 86% 30.28 in 10.0 mi Calm Calm - N/A   Clear
2:44 AM 30.2 °F - 26.6 °F 86% 30.30 in 10.0 mi Calm Calm - N/A   Clear
3:04 AM 28.4 °F 24.6 °F 24.8 °F 86% 30.31 in 10.0 mi NNE 3.5 mph - N/A   Clear
3:24 AM 28.4 °F - 26.6 °F 93% 30.31 in 10.0 mi Calm Calm - N/A   Clear
3:44 AM 28.4 °F - 24.8 °F 86% 30.31 in 10.0 mi Calm Calm - N/A   Clear
4:04 AM 28.4 °F - 26.6 °F 93% 30.31 in 10.0 mi Calm Calm - N/A   Clear
4:24 AM 26.6 °F - 24.8 °F 93% 30.32 in 10.0 mi Calm Calm - N/A   Clear
4:44 AM 28.4 °F - 24.8 °F 86% 30.33 in 10.0 mi Calm Calm - N/A   Clear
5:04 AM 26.6 °F - 24.8 °F 93% 30.34 in 10.0 mi Calm Calm - N/A   Clear
5:24 AM 26.6 °F - 24.8 °F 93% 30.35 in 10.0 mi Calm Calm - N/A   Clear
5:45 AM 26.6 °F - 24.8 °F 93% 30.35 in 10.0 mi Calm Calm - N/A   Clear
6:05 AM 26.6 °F - 23.0 °F 86% 30.36 in 10.0 mi Calm Calm - N/A   Clear
6:25 AM 26.6 °F - 23.0 °F 86% 30.37 in 10.0 mi Calm Calm - N/A   Clear
6:45 AM 26.6 °F - 23.0 °F 86% 30.38 in 10.0 mi Calm Calm - N/A   Clear
7:05 AM 26.6 °F - 23.0 °F 86% 30.38 in 10.0 mi Calm Calm - N/A   Clear
7:25 AM 24.8 °F - 23.0 °F 93% 30.39 in 10.0 mi Calm Calm - N/A   Clear
7:45 AM 26.6 °F - 23.0 °F 86% 30.38 in 10.0 mi Calm Calm - N/A   Clear
8:05 AM 28.4 °F - 24.8 °F 86% 30.39 in 10.0 mi Calm Calm - N/A   Clear
8:24 AM 30.2 °F 26.7 °F 26.6 °F 86% 30.39 in 10.0 mi SSE 3.5 mph - N/A   Clear
8:45 AM 32.0 °F - 28.4 °F 87% 30.40 in 10.0 mi Calm Calm - N/A   Clear
9:05 AM 32.0 °F - 28.4 °F 87% 30.41 in 10.0 mi Calm Calm - N/A   Clear
9:24 AM 33.8 °F - 28.4 °F 81% 30.42 in 10.0 mi Calm Calm - N/A   Clear
9:44 AM 35.6 °F - 30.2 °F 81% 30.42 in 10.0 mi Calm Calm - N/A   Clear
10:04 AM 37.4 °F 33.8 °F 26.6 °F 65% 30.42 in 10.0 mi WNW 4.6 mph - N/A   Clear
10:24 AM 37.4 °F - 23.0 °F 56% 30.42 in 10.0 mi Calm Calm - N/A   Clear
10:45 AM 37.4 °F - 23.0 °F 56% 30.41 in 10.0 mi Calm Calm - N/A   Clear
11:05 AM 37.4 °F - 23.0 °F 56% 30.40 in 10.0 mi Calm Calm - N/A   Clear
11:25 AM 39.2 °F - 21.2 °F 49% 30.39 in 10.0 mi Calm Calm - N/A   Clear
11:45 AM 41.0 °F 38.0 °F 23.0 °F 49% 30.38 in 10.0 mi WSW 4.6 mph - N/A   Clear
12:05 PM 41.0 °F 39.0 °F 23.0 °F 49% 30.36 in 10.0 mi WSW 3.5 mph - N/A   Clear
12:25 PM 41.0 °F 38.0 °F 26.6 °F 57% 30.35 in 10.0 mi SSW 4.6 mph - N/A   Clear
12:45 PM 41.0 °F 37.1 °F 26.6 °F 57% 30.33 in 10.0 mi SW 5.8 mph - N/A   Clear
1:05 PM 41.0 °F 34.7 °F 23.0 °F 49% 30.32 in 10.0 mi SSW 10.4 mph - N/A   Clear
1:25 PM 41.0 °F 37.1 °F 24.8 °F 53% 30.31 in 10.0 mi SW 5.8 mph - N/A   Clear
1:45 PM 42.8 °F 39.3 °F 23.0 °F 46% 30.30 in 10.0 mi SW 5.8 mph - N/A   Clear
2:05 PM 42.8 °F 39.3 °F 23.0 °F 46% 30.29 in 10.0 mi SSW 5.8 mph - N/A   Clear
2:25 PM 42.8 °F 39.3 °F 23.0 °F 46% 30.28 in 10.0 mi SW 5.8 mph - N/A   Clear
2:45 PM 42.8 °F 40.1 °F 21.2 °F 42% 30.28 in 10.0 mi SW 4.6 mph - N/A   Clear
3:05 PM 41.0 °F 38.0 °F 21.2 °F 45% 30.28 in 10.0 mi SW 4.6 mph - N/A   Clear
3:25 PM 41.0 °F 38.0 °F 23.0 °F 49% 30.28 in 10.0 mi SW 4.6 mph - N/A   Clear
3:45 PM 41.0 °F 37.1 °F 23.0 °F 49% 30.28 in 10.0 mi SW 5.8 mph - N/A   Clear
4:05 PM 41.0 °F 38.0 °F 23.0 °F 49% 30.28 in 10.0 mi SSW 4.6 mph - N/A   Clear
4:25 PM 39.2 °F - 23.0 °F 52% 30.28 in 10.0 mi Calm Calm - N/A   Clear
4:45 PM 37.4 °F - 24.8 °F 60% 30.28 in 10.0 mi Calm Calm - N/A   Clear
5:05 PM 35.6 °F - 28.4 °F 75% 30.28 in 10.0 mi Calm Calm - N/A   Clear
5:25 PM 33.8 °F - 26.6 °F 75% 30.29 in 10.0 mi Calm Calm - N/A   Clear
5:44 PM 33.8 °F 30.8 °F 28.4 °F 81% 30.28 in 10.0 mi SE 3.5 mph - N/A   Clear
6:05 PM 32.0 °F - 28.4 °F 87% 30.28 in 10.0 mi Calm Calm - N/A   Clear
6:25 PM 32.0 °F - 28.4 °F 87% 30.28 in 10.0 mi Calm Calm - N/A   Clear
6:45 PM 32.0 °F - 26.6 °F 80% 30.27 in 10.0 mi Calm Calm - N/A   Clear
7:05 PM 32.0 °F - 28.4 °F 87% 30.28 in 10.0 mi Calm Calm - N/A   Clear
7:26 PM 32.0 °F - 28.4 °F 87% 30.27 in 10.0 mi Calm Calm - N/A   Clear
7:46 PM 32.0 °F - 28.4 °F 87% 30.27 in 10.0 mi Calm Calm - N/A   Clear
8:06 PM 32.0 °F - 28.4 °F 87% 30.27 in 10.0 mi Calm Calm - N/A   Clear
8:26 PM 32.0 °F - 28.4 °F 87% 30.27 in 10.0 mi Calm Calm - N/A   Clear
8:46 PM 32.0 °F - 28.4 °F 87% 30.26 in 10.0 mi Calm Calm - N/A   Clear
9:06 PM 32.0 °F - 28.4 °F 87% 30.26 in 10.0 mi Calm Calm - N/A   Clear
9:26 PM 32.0 °F - 28.4 °F 87% 30.26 in 10.0 mi Calm Calm - N/A   Clear
9:46 PM 30.2 °F - 26.6 °F 86% 30.25 in 10.0 mi Calm Calm - N/A   Clear
10:06 PM 30.2 °F 26.7 °F 28.4 °F 93% 30.25 in 10.0 mi SSE 3.5 mph - N/A   Clear
10:26 PM 30.2 °F - 26.6 °F 86% 30.25 in 10.0 mi Calm Calm - N/A   Clear
10:46 PM 30.2 °F - 26.6 °F 86% 30.25 in 10.0 mi Calm Calm - N/A   Clear
11:06 PM 30.2 °F - 26.6 °F 86% 30.25 in 10.0 mi Calm Calm - N/A   Clear
11:26 PM 30.2 °F 26.7 °F 26.6 °F 86% 30.25 in 10.0 mi NNW 3.5 mph - N/A   Clear
11:46 PM 30.2 °F - 26.6 °F 86% 30.25 in 10.0 mi Calm Calm - N/A   Clear